Regional Weather Roundup
Issued by NWS

Home | Current Version | Previous Version | Text Only | Print | Product List | Glossary On
Versions: 1 2 3 4 5 6 7 8 9 10 11 12 13 14 15 16 17 18 19 20 21 22 23 24 25 26 27
000
ASUS42 KFFC 010403
RWRGA
WEATHER ROUNDUP FOR GEORGIA
NATIONAL WEATHER SERVICE PEACHTREE CITY GA
1200 AM EDT THU SEP 01 2016

NOTE: "FAIR" INDICATES FEW OR NO CLOUDS BELOW 12,000 FEET WITH NO
SIGNIFICANT WEATHER AND/OR OBSTRUCTIONS TO VISIBILITY.

* = USE WITH CAUTION. THE STATIONS MARKED WITH AN ASTERISK MAY NOT
REPORT WEATHER SUCH AS PRECIPITATION, FOG, OR THUNDER AND ARE NOT
QUALITY CONTROLLED BY NWS.

THE REMARK "TC" DENOTES TEMPERATURE READING IN DEGREES CELSIUS.

GAZ001>058-010500-
NORTH GEORGIA

CITY           SKY/WX    TMP DP  RH WIND       PRES   REMARKS
ATLANTA        PTCLDY    82  67  60 SE3       29.94S
ATHENS         CLEAR     75  71  87 SE3       29.94S
CHAMBLEE       CLEAR     77  66  68 SE3       29.95R
PEACHTREE CITY   N/A    N/A N/A N/A MISG      29.94S
ROME           CLOUDY    79  69  71 CALM      29.93S
WEST ATLANTA   CLEAR     75  68  78 CALM      29.94R
CARTERSVILLE   CLOUDY    76  68  76 W3        29.95R


CITY           SKY/WX    TMP DP  RH WIND       PRES   REMARKS
DALTON*        MOCLDY    72  72 100 CALM      29.94F
MARIETTA       CLEAR     79  66  65 CALM      29.95R
CANTON*        PTCLDY   N/A N/A N/A CALM      29.98R
BLAIRSVILLE*     N/A    N/A N/A N/A MISG      30.02S
$$

GAZ059>098-102>109-010500-
CENTRAL GEORGIA

CITY           SKY/WX    TMP DP  RH WIND       PRES   REMARKS
AUGUSTA-BUSH   CLEAR     74  73  97 CALM      29.92R
AUGUSTA-DANIEL CLEAR     78  71  79 SE5       29.94R
COLUMBUS       CLEAR     79  70  74 S7        29.91R
MACON          PTCLDY    77  71  82 SE3       29.92S
ROBINS AFB     CLEAR     76  73  91 SE3       29.91S


CITY           SKY/WX    TMP DP  RH WIND       PRES   REMARKS
LAGRANGE*      CLEAR     76  74  94 CALM      29.92S
MILLEDGEVILLE* CLEAR     77  73  88 CALM      29.93R
$$

GAZ099>101-110>166-010500-
SOUTH GEORGIA

CITY           SKY/WX    TMP DP  RH WIND       PRES   REMARKS
SAVANNAH       CLOUDY    77  73  87 CALM      29.93R
VALDOSTA       CLOUDY    76  76 100 S6        29.92R
ALMA           CLOUDY    76  75  97 S6        29.91F
ST SIMONS      MOCLDY    76  75  97 SW6       29.92F
FT STEWART     CLOUDY    77  74  89 CALM      29.90F
ALBANY         CLEAR     76  73  91 NE6       29.92R
MOODY AFB      CLOUDY    75  73  94 SE3       29.91R
BRUNSWICK      MOCLDY    75  75 100 W3        29.93F


CITY           SKY/WX    TMP DP  RH WIND       PRES   REMARKS
BAINBRIDGE*    MOCLDY    77  73  88 CALM      29.89S
MOULTRIE*      MOCLDY    77  73  88 CALM      29.92R
VIDALIA*       MOCLDY    77  77 100 SE3       29.93S
WAYCROSS*        N/A     78  78 100 CALM      29.92S
DOUGLAS*       CLOUDY    77  73  88 CALM      29.93F
$$




USA.gov is the U.S. government's official web portal to all federal, state and local government web resources and services.